When you browse on this site, cookies collect data to enhance your experience and personalize the content and advertising you see.
Visit our Privacy Policy to learn more. By continuing to use the site, you agree to this use of cookies and data.
  • In Lithuania
  • List of Countries
  • For 7 days
  • Water Temperature
  • Satellite Maps
  • Weather Map
  • Weather Widgets
  • user-avatar
    Login

    Hourly Weather L'viv

    Today, 21 November, Wednesday

    Time Temperature Precipitation Wind Pressure Humidity
    00:00 -4°C° 0 mm 6 mps 737 mmHg 79%
    01:00 -4°C° 0 mm 6 mps 737 mmHg 80%
    02:00 -3°C° 0 mm 6 mps 737 mmHg 80%
    03:00 -3°C° 0 mm 6 mps 737 mmHg 81%
    04:00 -3°C° 0 mm 6 mps 737 mmHg 82%
    05:00 -3°C° 0 mm 6 mps 737 mmHg 83%
    06:00 -3°C° 0 mm 6 mps 737 mmHg 82%
    07:00 -4°C° 0 mm 6 mps 737 mmHg 82%
    08:00 -4°C° 0 mm 6 mps 737 mmHg 82%
    09:00 -3°C° 0 mm 6 mps 737 mmHg 80%
    10:00 -3°C° 0 mm 6 mps 737 mmHg 78%
    11:00 -2°C° 0 mm 6 mps 738 mmHg 76%
    12:00 -2°C° 0 mm 6 mps 738 mmHg 75%
    13:00 -2°C° 0 mm 6 mps 738 mmHg 74%
    14:00 -1°C° 0 mm 6 mps 737 mmHg 72%
    15:00 -1°C° 0 mm 5 mps 738 mmHg 75%
    16:00 -2°C° 0 mm 5 mps 738 mmHg 78%
    17:00 -2°C° 0 mm 5 mps 738 mmHg 80%
    18:00 -4°C° 0 mm 5 mps 738 mmHg 81%
    19:00 -4°C° 0 mm 5 mps 738 mmHg 81%
    20:00 -4°C° 0 mm 5 mps 738 mmHg 82%
    21:00 -4°C° 0 mm 5 mps 739 mmHg 82%
    22:00 -5°C° 0 mm 5 mps 739 mmHg 82%
    23:00 -4°C° 0 mm 4 mps 739 mmHg 83%

    Tomorrow, 22 November, Thursday

    Time Temperature Precipitation Wind Pressure Humidity
    00:00 -4°C° 0 mm 4 mps 739 mmHg 83%
    01:00 -4°C° 0 mm 4 mps 739 mmHg 84%
    02:00 -4°C° 0 mm 4 mps 739 mmHg 84%
    03:00 -5°C° 0 mm 4 mps 739 mmHg 84%
    04:00 -5°C° 0 mm 4 mps 739 mmHg 84%
    05:00 -5°C° 0 mm 4 mps 739 mmHg 84%
    06:00 -5°C° 0 mm 3 mps 739 mmHg 83%
    07:00 -5°C° 0 mm 3 mps 739 mmHg 83%
    08:00 -5°C° 0 mm 3 mps 739 mmHg 82%
    09:00 -4°C° 0 mm 3 mps 740 mmHg 77%
    10:00 -2°C° 0 mm 3 mps 740 mmHg 71%
    11:00 -1°C° 0 mm 3 mps 740 mmHg 65%
    12:00 0°C° 0 mm 3 mps 740 mmHg 62%
    13:00 0°C° 0 mm 3 mps 740 mmHg 59%
    14:00 +1°C° 0 mm 3 mps 740 mmHg 56%
    15:00 0°C° 0 mm 3 mps 740 mmHg 61%
    16:00 -1°C° 0 mm 2 mps 740 mmHg 66%
    17:00 -2°C° 0 mm 2 mps 739 mmHg 71%
    18:00 -3°C° 0 mm 2 mps 740 mmHg 73%
    19:00 -3°C° 0 mm 2 mps 740 mmHg 74%
    20:00 -3°C° 0 mm 2 mps 740 mmHg 76%
    21:00 -4°C° 0 mm 2 mps 740 mmHg 76%
    22:00 -4°C° 0 mm 2 mps 740 mmHg 76%
    23:00 -4°C° 0 mm 2 mps 740 mmHg 75%

    Day after tomorrow, 23 November, Friday

    Time Temperature Precipitation Wind Pressure Humidity
    00:00 -4°C° 0 mm 2 mps 740 mmHg 75%
    01:00 -2°C° 0 mm 1 mps 740 mmHg 74%
    02:00 -2°C° 0 mm 1 mps 740 mmHg 74%
    03:00 -2°C° 0 mm 1 mps 741 mmHg 74%
    04:00 -2°C° 0 mm 1 mps 741 mmHg 73%
    05:00 -2°C° 0 mm 1 mps 741 mmHg 73%
    06:00 -2°C° 0 mm 1 mps 741 mmHg 73%
    07:00 -2°C° 0 mm 1 mps 741 mmHg 73%
    08:00 -4°C° 0 mm 2 mps 741 mmHg 73%
    09:00 -2°C° 0 mm 2 mps 741 mmHg 68%
    10:00 -1°C° 0 mm 2 mps 741 mmHg 63%
    11:00 +1°C° 0 mm 2 mps 742 mmHg 57%
    12:00 +2°C° 0 mm 2 mps 741 mmHg 57%
    13:00 +3°C° 0 mm 2 mps 741 mmHg 56%
    14:00 +3°C° 0 mm 2 mps 741 mmHg 55%
    15:00 +2°C° 0 mm 2 mps 741 mmHg 61%
    16:00 +1°C° 0 mm 2 mps 741 mmHg 67%
    17:00 -2°C° 0 mm 2 mps 741 mmHg 72%
    18:00 -2°C° 0 mm 2 mps 741 mmHg 74%
    19:00 -2°C° 0 mm 2 mps 741 mmHg 76%
    20:00 -2°C° 0 mm 3 mps 740 mmHg 78%
    21:00 -2°C° 0 mm 3 mps 740 mmHg 80%
    22:00 -2°C° 0 mm 3 mps 740 mmHg 81%
    23:00 -2°C° 0 mm 3 mps 740 mmHg 82%

    24 November, Saturday

    Time Temperature Precipitation Wind Pressure Humidity
    00:00 -2°C° 0 mm 2 mps 740 mmHg 84%
    01:00 -2°C° 0 mm 2 mps 740 mmHg 85%
    02:00 -2°C° 0 mm 2 mps 739 mmHg 86%
    03:00 -2°C° 0 mm 2 mps 739 mmHg 86%
    04:00 -2°C° 0 mm 3 mps 738 mmHg 87%
    05:00 -2°C° 0 mm 3 mps 738 mmHg 87%
    06:00 -2°C° 0 mm 3 mps 738 mmHg 88%
    07:00 -2°C° 0 mm 3 mps 737 mmHg 88%
    08:00 -2°C° 0 mm 2 mps 737 mmHg 89%
    09:00 0°C° 0 mm 3 mps 737 mmHg 84%
    10:00 +1°C° 0 mm 3 mps 737 mmHg 78%
    11:00 +3°C° 0 mm 3 mps 737 mmHg 73%
    12:00 +3°C° 0 mm 3 mps 736 mmHg 73%
    13:00 +4°C° 0 mm 3 mps 736 mmHg 72%
    14:00 +5°C° 0 mm 3 mps 735 mmHg 71%
    15:00 +4°C° 0 mm 3 mps 735 mmHg 75%
    16:00 +3°C° 0 mm 3 mps 734 mmHg 79%
    17:00 +2°C° 0 mm 3 mps 734 mmHg 83%
    18:00 +2°C° 0.2 mm 3 mps 734 mmHg 85%
    19:00 +2°C° 0.2 mm 3 mps 734 mmHg 86%
    20:00 +2°C° 0.2 mm 3 mps 734 mmHg 87%
    21:00 +3°C° 0.2 mm 2 mps 734 mmHg 88%
    22:00 +3°C° 0.2 mm 2 mps 734 mmHg 89%
    23:00 +3°C° 0.2 mm 2 mps 733 mmHg 90%

    25 November, Sunday

    Time Temperature Precipitation Wind Pressure Humidity
    00:00 +3°C° 0.1 mm 2 mps 733 mmHg 90%
    01:00 +3°C° 0.1 mm 2 mps 733 mmHg 90%
    02:00 +4°C° 0.1 mm 2 mps 733 mmHg 90%
    03:00 +4°C° 0.1 mm 2 mps 733 mmHg 91%
    04:00 +4°C° 0.1 mm 2 mps 733 mmHg 91%
    05:00 +4°C° 0.1 mm 2 mps 732 mmHg 92%
    06:00 +4°C° 0.4 mm 2 mps 732 mmHg 92%
    07:00 +5°C° 0.4 mm 1 mps 732 mmHg 93%
    08:00 +5°C° 0.4 mm 1 mps 732 mmHg 93%
    09:00 +5°C° 0.2 mm 1 mps 732 mmHg 92%
    10:00 +4°C° 0.2 mm 2 mps 732 mmHg 91%
    11:00 +4°C° 0.2 mm 2 mps 732 mmHg 90%
    12:00 +5°C° 0.3 mm 1 mps 732 mmHg 90%
    13:00 +5°C° 0.3 mm 1 mps 732 mmHg 90%
    14:00 +6°C° 0.3 mm 1 mps 731 mmHg 90%
    15:00 +5°C° 0.1 mm 1 mps 731 mmHg 92%
    16:00 +5°C° 0.1 mm 1 mps 731 mmHg 93%
    17:00 +5°C° 0.1 mm 1 mps 731 mmHg 94%
    18:00 +5°C° 0 mm 1 mps 731 mmHg 94%
    19:00 +5°C° 0 mm 1 mps 731 mmHg 95%
    20:00 +5°C° 0 mm 1 mps 731 mmHg 95%
    21:00 +4°C° 0 mm 1 mps 731 mmHg 95%
    22:00 +4°C° 0 mm 1 mps 730 mmHg 95%
    23:00 +4°C° 0 mm 1 mps 730 mmHg 96%

    26 November, Monday

    Time Temperature Precipitation Wind Pressure Humidity
    00:00 +4°C° 0.1 mm 1 mps 730 mmHg 96%
    01:00 +4°C° 0.1 mm 1 mps 730 mmHg 96%
    02:00 +4°C° 0.1 mm 1 mps 730 mmHg 96%
    03:00 +4°C° 0.1 mm 1 mps 730 mmHg 96%
    04:00 +3°C° 0.1 mm 2 mps 729 mmHg 96%
    05:00 +3°C° 0.1 mm 2 mps 729 mmHg 96%
    06:00 +3°C° 0.4 mm 2 mps 729 mmHg 95%
    07:00 +2°C° 0.4 mm 3 mps 729 mmHg 95%
    08:00 +2°C° 0.4 mm 3 mps 729 mmHg 94%
    09:00 +2°C° 0.6 mm 3 mps 729 mmHg 93%
    10:00 +2°C° 0.6 mm 3 mps 729 mmHg 92%
    11:00 +1°C° 0.6 mm 4 mps 729 mmHg 91%
    12:00 +1°C° 0.2 mm 4 mps 729 mmHg 89%
    13:00 +1°C° 0.2 mm 4 mps 729 mmHg 88%
    14:00 +1°C° 0.2 mm 4 mps 728 mmHg 87%
    15:00 +1°C° 0.1 mm 4 mps 728 mmHg 88%
    16:00 +1°C° 0.1 mm 4 mps 728 mmHg 88%
    17:00 +1°C° 0.1 mm 4 mps 728 mmHg 89%
    18:00 0°C° 0 mm 4 mps 728 mmHg 89%
    19:00 0°C° 0 mm 4 mps 728 mmHg 89%
    20:00 0°C° 0 mm 4 mps 728 mmHg 89%
    21:00 0°C° 0.1 mm 4 mps 728 mmHg 89%
    22:00 0°C° 0.1 mm 4 mps 728 mmHg 89%
    23:00 0°C° 0.1 mm 5 mps 727 mmHg 89%
    Show more